Location: Newark
(39.0622°N, 106.5590°E)
Time: 13:40:34
(UTC+00:00)

Courier 1B - Pass Details

Date: 29 January 2020
Orbit: 962 x 1209 km, 28.3° (Epoch: 25 February)

Event Time Altitude Azimuth Distance (km) Brightness Sun altitude
Rises 21:23:42 0° 260° (W) 3,855 - -31.0°
Reaches altitude 10° 21:26:44 10° 250° (WSW) 2,939 - -30.4°
Exits shadow 21:32:37 30° 195° (SSW) 1,910 8.8 -29.3°
Maximum altitude 21:32:51 30° 192° (SSW) 1,910 8.9 -29.2°
Drops below altitude 10° 21:39:16 10° 135° (SE) 3,080 10.6 -28.0°
Sets 21:42:31 0° 125° (SE) 4,068 11.6 -27.4°
